London-Corbin, KY

4:41 AM EDT on August 17, 2017 (GMT -0400)
London-Corbin / McKee

Weather History for KLOZ - March, 2013

Change the Weather History Date:

Monday, March 4, 2013

  Actual Average Record
Temperature  
Mean Temperature 32 °F 44 °F  
Max Temperature 47 °F 55 °F 82 °F (1976)
Min Temperature 17 °F 33 °F 2 °F (1960)
Degree Days  
Heating Degree Days 33 21  
Month to date heating degree days 135 86  
Since 1 July heating degree days 3483 3362  
Cooling Degree Days 0 0  
Month to date cooling degree days 0 0  
Year to date cooling degree days 0 0  
Moisture  
Dew Point 19 °F    
Average Humidity 62    
Maximum Humidity 92    
Minimum Humidity 31    
Precipitation  
Precipitation T in 0.13 in 1.79 in (2015)
Month to date precipitation 0.06 0.54  
Year to date precipitation 6.85  
Sea Level Pressure  
Sea Level Pressure 30.10 in    
Wind  
Wind Speed 2 mph (SE)    
Max Wind Speed 8 mph    
Max Gust Speed 13 mph    
Visibility 10 miles    
Events      
T = Trace of Precipitation, MM = Missing Value Source: NWS Daily Summary

Daily Weather History Graph

Daily Weather History Graph

Search for Another Location

Airport or City:

Trip Planner

Search our weather history database for the weather conditions in past years. The results will help you decide how hot, cold, wet, or windy it might be!

Date:

Astronomy

Mar. 04, 2013 Rise Set
Actual Time 7:02 AM EST 6:33 PM EST
Civil Twilight 6:36 AM EST 6:59 PM EST
Nautical Twilight 6:06 AM EST 7:29 PM EST
Astronomical Twilight 5:36 AM EST 7:59 PM EST
Moon 1:05 AM EST (3/4) 11:20 AM EST (3/4)
Length of Visible Light 12h 22m
Length of Day
11h 30m
Waning Gibbous, 52% of the Moon is Illuminated
Mar 4
Waning Gibbous
Mar 4
Last Quarter
Mar 11
New
Mar 19
First Quarter
Mar 27
Full

Hourly Weather History & Observations

Time (EST) Temp. Windchill Dew Point Humidity Pressure Visibility Wind Dir Wind Speed Gust Speed Precip Events Conditions
12:53 AM 21.9 °F - 18.0 °F 85% 30.12 in 10.0 mi Calm Calm - N/A   Clear
1:53 AM 21.0 °F - 18.0 °F 88% 30.13 in 10.0 mi Calm Calm - N/A   Clear
2:53 AM 19.9 °F - 16.0 °F 85% 30.14 in 10.0 mi Calm Calm - N/A   Clear
3:53 AM 18.0 °F - 16.0 °F 92% 30.14 in 10.0 mi Calm Calm - N/A   Clear
4:53 AM 19.0 °F - 15.1 °F 85% 30.16 in 10.0 mi Calm Calm - N/A   Clear
5:53 AM 18.0 °F - 14.0 °F 84% 30.18 in 10.0 mi Calm Calm - N/A   Clear
6:53 AM 17.1 °F - 14.0 °F 88% 30.19 in 10.0 mi Calm Calm - N/A   Clear
7:53 AM 19.0 °F - 17.1 °F 92% 30.19 in 10.0 mi Calm Calm - N/A   Clear
8:53 AM 25.0 °F 20.7 °F 21.0 °F 85% 30.19 in 10.0 mi Variable 3.5 mph - N/A   Clear
9:53 AM 30.0 °F 26.5 °F 23.0 °F 75% 30.19 in 10.0 mi South 3.5 mph - N/A   Clear
10:53 AM 35.1 °F 31.0 °F 21.0 °F 57% 30.17 in 10.0 mi East 4.6 mph - N/A   Clear
11:53 AM 37.9 °F 32.7 °F 18.0 °F 45% 30.16 in 10.0 mi Variable 6.9 mph - N/A   Clear
12:53 PM 39.9 °F - 16.0 °F 38% 30.12 in 10.0 mi Calm Calm - N/A   Clear
1:53 PM 45.0 °F - 18.0 °F 34% 30.08 in 10.0 mi Calm Calm - N/A   Clear
2:53 PM 46.9 °F - 17.1 °F 30% 30.06 in 10.0 mi South 6.9 mph - N/A   Mostly Cloudy
3:53 PM 45.0 °F - 17.1 °F 33% 30.05 in 10.0 mi Calm Calm - N/A   Overcast
4:53 PM 46.0 °F 43.9 °F 18.0 °F 33% 30.04 in 10.0 mi SSE 4.6 mph - N/A   Overcast
5:53 PM 45.0 °F 42.6 °F 21.0 °F 39% 30.03 in 10.0 mi ESE 4.6 mph - 0.00 in   Overcast
6:53 PM 43.0 °F 40.3 °F 21.0 °F 42% 30.02 in 10.0 mi ESE 4.6 mph - N/A   Clear
7:53 PM 42.1 °F 40.2 °F 21.0 °F 43% 30.00 in 10.0 mi East 3.5 mph - N/A   Clear
8:53 PM 43.0 °F - 21.0 °F 42% 30.00 in 10.0 mi Calm Calm - N/A   Overcast
9:53 PM 43.0 °F - 21.9 °F 43% 30.02 in 10.0 mi Calm Calm - N/A   Overcast
10:53 PM 39.9 °F 35.8 °F 27.0 °F 60% 30.00 in 10.0 mi ENE 5.8 mph - N/A   Overcast
11:53 PM 39.9 °F - 25.0 °F 55% 30.01 in 10.0 mi Calm Calm - N/A   Overcast